Flag for Netherlands Weather past 2 weeks in Eindhoven, Netherlands

Now
39 °F

Fog.


Feels Like: 35 °F
Forecast: 36 / 43 °F
Wind: 6 mph from South

Location: Eindhoven Airport

Current Time: Jan 26, 2015 at 3:44:34 AM

Latest Report: Jan 26, 2015 at 3:03 AM


Visibility: 4 mi

Pressure: 30.27 "Hg

Humidity: 93%

Dew point: 37 °F

Location of EindhovenLocation

Historic Weather in Eindhoven — Graph

°F

Eindhoven temperature yesterday

Maximum temperature yesterday: 39 °F (at 1:55 PM)
Minimum temperature yesterday: 27 °F (at 1:55 AM)
Average temperature yesterday: 36 °F

Past Weeks' High & Low Weather Summary

 TemperatureHumidityPressure
High52 °F (Jan 13, 12:25 AM)100% (Jan 13, 1:25 PM)30.42 "Hg (Jan 13, 1:25 PM)
Low25 °F (Jan 22, 12:25 AM)65% (Jan 21, 2:55 PM)29.36 "Hg (Jan 15, 1:55 PM)
Average38 °F86%29.93 "Hg
* Reported Jan 11 2:25 AM — Jan 26 2:58 AM, Eindhoven, Weather by CustomWeather, © 2014

Note: Actual official high and low records may vary slightly from our data, if they occured in-between our weather recording intervals... More about our weather records

Advertising

Eindhoven weather history for previous 24 hours

 ConditionsComfort  
Time TempWeatherWind HumidityBarometerVisibility
2:58 AM
Jan 26
39 °FFog.6 mph93%30.27 "Hg4 mi
2:25 AM39 °FFog.8 mph93%30.27 "Hg4 mi
1:55 AM39 °FFog.8 mph93%30.27 "Hg4 mi
1:25 AM39 °FFog.8 mph93%30.27 "Hg4 mi
12:55 AM39 °FFog.9 mph93%30.27 "Hg4 mi
12:25 AM39 °FFog.8 mph93%30.30 "Hg4 mi
11:55 PM
Jan 25
39 °FLight rain. Overcast.6 mph93%30.30 "Hg4 mi
11:25 PM39 °FLight rain. Low clouds.10 mph93%30.30 "Hg4 mi
10:55 PM39 °FFog.9 mph93%30.30 "Hg5 mi
10:25 PM39 °FFog.9 mph93%30.33 "Hg5 mi
10:03 PM39 °FFog.9 mph93%30.33 "Hg5 mi
9:55 PM39 °FFog.9 mph93%30.33 "Hg5 mi
9:25 PM39 °FFog.8 mph93%30.36 "Hg4 mi
8:59 PM39 °FDrizzle. Mostly cloudy.8 mph93%30.36 "Hg4 mi
8:55 PM39 °FLight rain. Overcast.7 mph93%30.36 "Hg4 mi
8:25 PM39 °FFog.7 mph93%30.36 "Hg4 mi
7:55 PM39 °FFog.7 mph93%30.36 "Hg3 mi
7:25 PM39 °FPassing clouds.9 mph93%30.36 "Hg3 mi
6:55 PM39 °FFog.9 mph93%30.36 "Hg3 mi
6:25 PM39 °FPartly cloudy.8 mph93%30.36 "Hg3 mi
5:55 PM39 °FFog.8 mph93%30.36 "Hg3 mi
5:25 PM39 °FPassing clouds.7 mph93%30.36 "Hg3 mi
4:55 PM39 °FDrizzle. Mostly cloudy.7 mph93%30.36 "Hg4 mi
4:25 PM39 °FFog.7 mph93%30.36 "Hg4 mi
3:59 PM39 °FFog.7 mph93%30.36 "Hg4 mi
3:55 PM39 °FFog.7 mph93%30.36 "Hg4 mi
3:25 PM39 °FFog.7 mph93%30.36 "Hg4 mi
2:55 PM39 °FFog.7 mph93%30.36 "Hg4 mi
2:25 PM39 °FFog.7 mph93%30.36 "Hg4 mi
1:56 PM39 °FFog.7 mph93%30.39 "Hg4 mi
1:55 PM39 °FFog.7 mph93%30.39 "Hg4 mi
1:25 PM37 °FFog.7 mph100%30.39 "Hg3 mi
1:03 PM37 °FFog.8 mph93%30.39 "Hg3 mi
12:55 PM37 °FFog.8 mph93%30.39 "Hg3 mi
12:25 PM37 °FDrizzle. More clouds than sun.7 mph93%30.42 "Hg4 mi
11:55 AM36 °FFog.7 mph100%30.42 "Hg4 mi
11:25 AM36 °FFog.6 mph100%30.42 "Hg4 mi
10:55 AM36 °FFog.6 mph100%30.42 "Hg4 mi
10:25 AM36 °FFog.7 mph93%30.42 "Hg4 mi
9:55 AM36 °FFog.7 mph93%30.42 "Hg4 mi
9:25 AM36 °FFog.7 mph93%30.42 "Hg4 mi
9:00 AM36 °FFog.6 mph93%30.42 "Hg4 mi
8:25 AM36 °FFog.6 mph93%30.42 "Hg4 mi
7:57 AM36 °FFog.8 mph93%30.39 "Hg5 mi
7:25 AM34 °FFog.8 mph100%30.39 "Hg5 mi
6:55 AM34 °FFog.7 mph100%30.39 "Hg5 mi
6:25 AM34 °FFog.6 mph93%30.39 "Hg5 mi
6:01 AM34 °FFog.5 mph100%30.39 "Hg4 mi
5:25 AM34 °FFog.6 mph93%30.39 "Hg6 mi
4:55 AM32 °FOvercast.6 mph100%30.39 "HgN/A
4:25 AM30 °FOvercast.6 mph100%30.36 "HgN/A
3:55 AM30 °FIce fog.6 mph93%30.36 "Hg6 mi
3:25 AM28 °FIce fog.5 mph93%30.36 "Hg5 mi
Weather by CustomWeather, © 2014

See weather overviewHow to use our weather pages